KE4OGG Weather Reports


Display with metric or nautical units.
time (UTC)temp
F
wind
direction
speed
MPH
gust
MPH
rain 1hr
in
rain 24hr
in
rain mn
in
humidity
%
barometer
mb
20260509180525 73 82 1.0 3.0 0.00 0.00 0.00 62 1012.0
20260509180038 74 82 1.0 3.0 0.00 0.00 0.00 60 1012.1
20260509175523 74 234 1.0 4.0 0.00 0.00 0.00 60 1012.1
20260509175023 74 203 1.0 4.0 0.00 0.00 0.00 60 1012.2
20260509174536 74 303 0.0 3.0 0.00 0.00 0.00 61 1012.2
20260509174022 74 205 1.0 3.0 0.00 0.00 0.00 60 1012.2
20260509173526 74 154 1.0 3.0 0.00 0.00 0.00 61 1012.3
20260509173042 74 94 0.0 3.0 0.00 0.00 0.00 61 1012.2
20260509172525 74 251 0.0 2.0 0.00 0.00 0.00 63 1012.2
20260509172023 72 257 0.0 4.0 0.00 0.00 0.00 63 1012.4
20260509171538 71 255 0.0 4.0 0.00 0.00 0.00 65 1012.4
20260509171023 71 295 0.0 3.0 0.00 0.00 0.00 65 1012.5
20260509170523 70 285 0.0 4.0 0.00 0.00 0.00 65 1012.7
20260509170038 70 273 0.0 4.0 0.00 0.00 0.00 66 1012.8
20260509165523 70 271 0.0 4.0 0.00 0.00 0.00 66 1013.0
20260509165023 69 333 0.0 4.0 0.00 0.00 0.00 66 1012.9
20260509164537 69 0 0.0 4.0 0.00 0.00 0.00 66 1013.0
20260509164028 70 137 0.0 2.0 0.00 0.00 0.00 66 1013.2
20260509163523 69 0 0.0 2.0 0.00 0.00 0.00 66 1013.1
20260509163042 69 233 0.0 6.0 0.00 0.00 0.00 65 1013.1
20260509162523 69 158 1.0 6.0 0.00 0.00 0.00 66 1012.9
20260509162025 69 131 0.0 3.0 0.00 0.00 0.00 66 1013.1
20260509161539 69 118 1.0 3.0 0.00 0.00 0.00 67 1013.0
20260509161023 68 0 0.0 1.0 0.00 0.00 0.00 67 1013.2
20260509160524 68 206 0.0 1.0 0.00 0.00 0.00 67 1013.2
20260509160038 67 217 0.0 2.0 0.00 0.00 0.00 68 1013.1
20260509155523 67 0 0.0 2.0 0.00 0.00 0.00 68 1013.4
20260509155027 66 0 0.0 3.0 0.00 0.00 0.00 69 1013.5
20260509154543 66 0 0.0 3.0 0.00 0.00 0.00 69 1013.5
20260509154028 65 139 0.0 2.0 0.00 0.00 0.00 69 1013.5
20260509153526 65 281 0.0 1.0 0.00 0.00 0.00 69 1013.5
20260509153037 65 0 0.0 1.0 0.00 0.00 0.00 69 1013.5
20260509152523 65 0 0.0 1.0 0.00 0.00 0.00 69 1013.7
20260509152024 65 0 0.0 1.0 0.00 0.00 0.00 69 1013.7
20260509151537 65 0 0.0 1.0 0.00 0.00 0.00 69 1013.7
20260509151023 65 0 0.0 0.0 0.00 0.00 0.00 71 1013.6
20260509150523 64 0 0.0 0.0 0.00 0.00 0.00 71 1013.5
20260509150035 64 0 0.0 0.0 0.00 0.00 0.00 71 1013.5
20260509145523 64 0 0.0 0.0 0.00 0.00 0.00 71 1013.5
20260509145022 63 0 0.0 0.0 0.00 0.00 0.00 72 1013.4
20260509144542 63 0 0.0 1.0 0.00 0.00 0.00 72 1013.4
20260509144022 63 0 0.0 2.0 0.00 0.00 0.00 72 1013.3
20260509143523 63 0 0.0 2.0 0.00 0.00 0.00 71 1013.4
20260509143046 63 0 0.0 2.0 0.00 0.00 0.00 71 1013.3
20260509142523 63 0 0.0 1.0 0.00 0.00 0.00 71 1013.3
20260509142023 63 0 0.0 1.0 0.00 0.00 0.00 72 1013.2
20260509141542 63 104 0.0 3.0 0.00 0.00 0.00 72 1013.1
20260509141025 62 0 0.0 5.0 0.00 0.00 0.00 72 1013.0
20260509140523 62 105 1.0 5.0 0.00 0.00 0.00 72 1012.8
20260509140047 63 91 0.0 3.0 0.00 0.00 0.00 72 1012.7
20260509135523 62 0 0.0 3.0 0.00 0.00 0.00 73 1012.8
20260509135022 62 0 2.0 3.0 0.00 0.00 0.00 72 1012.8
20260509134536 63 98 0.0 3.0 0.00 0.00 0.00 72 1012.9
20260509134023 62 0 0.0 0.0 0.00 0.00 0.00 73 1012.9
20260509133527 62 0 0.0 1.0 0.00 0.00 0.00 73 1012.8
20260509133041 62 0 0.0 1.0 0.00 0.00 0.00 73 1012.7
20260509132523 61 0 0.0 1.0 0.00 0.00 0.00 74 1012.5
20260509132025 61 0 0.0 2.0 0.00 0.00 0.00 73 1012.5
20260509131542 61 0 0.0 2.0 0.00 0.00 0.00 73 1012.5
20260509131025 61 108 0.0 1.0 0.00 0.00 0.00 73 1012.8
20260509130523 61 0 0.0 0.0 0.00 0.00 0.00 73 1012.8
20260509130043 61 0 0.0 0.0 0.00 0.00 0.00 74 1012.9
20260509125523 60 0 0.0 0.0 0.00 0.00 0.00 74 1013.0
20260509125023 60 0 0.0 0.0 0.00 0.00 0.00 73 1012.8
20260509124540 60 0 0.0 0.0 0.00 0.00 0.00 74 1012.9
20260509124023 60 0 0.0 0.0 0.00 0.00 0.00 74 1012.8
20260509123523 59 0 0.0 0.0 0.00 0.00 0.00 75 1013.0
20260509123048 59 0 0.0 0.0 0.00 0.00 0.00 74 1013.3
20260509122523 59 0 0.0 1.0 0.00 0.00 0.00 75 1013.5
20260509122023 58 0 0.0 1.0 0.00 0.00 0.00 75 1013.6
20260509121539 58 0 0.0 1.0 0.00 0.00 0.00 75 1013.6
20260509121023 58 0 0.0 0.0 0.00 0.00 0.00 76 1013.3
20260509120522 58 0 0.0 1.0 0.00 0.00 0.00 76 1013.4
20260509120037 57 0 0.0 1.0 0.00 0.00 0.00 76 1013.3
20260509115523 57 0 0.0 0.0 0.00 0.00 0.00 76 1013.4
20260509115026 57 0 0.0 0.0 0.00 0.00 0.00 76 1013.3
20260509114540 57 0 0.0 1.0 0.00 0.00 0.00 77 1013.4
20260509114023 57 0 0.0 2.0 0.00 0.00 0.00 78 1013.4
20260509113524 57 0 0.0 2.0 0.00 0.00 0.00 79 1013.4
20260509113047 57 107 0.0 2.0 0.00 0.00 0.00 81 1013.4
20260509112523 57 0 0.0 0.0 0.00 0.00 0.00 82 1013.1
20260509112024 56 0 0.0 0.0 0.00 0.00 0.00 82 1013.0
20260509111545 56 0 0.0 0.0 0.00 0.00 0.00 82 1013.0
20260509111024 56 0 0.0 0.0 0.00 0.00 0.00 82 1013.2
20260509110522 56 0 0.0 0.0 0.00 0.00 0.00 82 1013.3
20260509110041 56 0 0.0 0.0 0.00 0.00 0.00 82 1013.3
20260509105523 56 0 0.0 0.0 0.00 0.00 0.00 83 1013.0
20260509105023 56 0 0.0 0.0 0.00 0.00 0.00 83 1013.2
20260509104539 56 0 0.0 0.0 0.00 0.00 0.00 83 1013.1
20260509104024 56 0 0.0 0.0 0.00 0.00 0.00 83 1013.0
20260509103526 55 0 0.0 0.0 0.00 0.00 0.00 82 1012.9
20260509103049 55 0 0.0 0.0 0.00 0.00 0.00 82 1012.8
20260509102523 55 0 0.0 0.0 0.00 0.00 0.00 82 1012.8
20260509102024 56 0 0.0 0.0 0.00 0.00 0.00 82 1012.8
20260509101538 56 0 0.0 0.0 0.00 0.00 0.00 83 1013.0
20260509101024 56 0 0.0 0.0 0.00 0.00 0.00 83 1013.1
20260509100523 56 0 0.0 0.0 0.00 0.00 0.00 83 1013.1
20260509100053 56 0 0.0 0.0 0.00 0.00 0.00 83 1013.0
20260509095523 55 0 0.0 1.0 0.00 0.00 0.00 83 1013.0
20260509095022 55 0 0.0 1.0 0.00 0.00 0.00 83 1012.9
20260509094547 55 0 0.0 0.0 0.00 0.00 0.00 83 1013.0
20260509094023 56 0 0.0 0.0 0.00 0.00 0.00 83 1013.0
20260509093523 56 0 0.0 0.0 0.00 0.00 0.00 83 1013.0
20260509093038 56 0 0.0 0.0 0.00 0.00 0.00 83 1012.9
20260509092523 56 0 0.0 1.0 0.00 0.00 0.00 83 1013.0
20260509092023 56 0 0.0 1.0 0.00 0.00 0.00 84 1012.9
20260509091539 56 0 0.0 1.0 0.00 0.00 0.00 84 1012.9
20260509091022 55 0 0.0 0.0 0.00 0.00 0.00 84 1012.7
20260509090523 55 0 0.0 0.0 0.00 0.00 0.00 83 1012.5
20260509090037 55 0 0.0 0.0 0.00 0.00 0.00 83 1012.5
20260509085523 55 0 0.0 0.0 0.00 0.00 0.00 84 1012.5
20260509085023 55 0 0.0 1.0 0.00 0.00 0.00 84 1012.7
20260509084537 55 0 0.0 1.0 0.00 0.00 0.00 84 1012.8
20260509084023 55 0 0.0 1.0 0.00 0.00 0.00 84 1012.9
20260509083522 55 0 0.0 1.0 0.00 0.00 0.00 84 1012.8
20260509083044 54 0 0.0 1.0 0.00 0.00 0.00 85 1012.8
20260509082527 54 0 0.0 0.0 0.00 0.00 0.00 84 1012.8
20260509082027 54 0 0.0 0.0 0.00 0.00 0.00 84 1012.7
20260509081538 54 0 0.0 0.0 0.00 0.00 0.00 84 1012.5
20260509081025 53 0 0.0 0.0 0.00 0.00 0.00 83 1012.5
20260509080527 53 0 0.0 0.0 0.00 0.00 0.00 83 1012.5
20260509080046 53 0 0.0 0.0 0.00 0.00 0.00 83 1012.5
20260509075522 53 0 0.0 0.0 0.00 0.00 0.00 82 1012.5
20260509075023 53 0 0.0 0.0 0.00 0.00 0.00 82 1012.7
20260509074541 53 0 0.0 0.0 0.00 0.00 0.00 82 1012.7
20260509074027 54 0 0.0 0.0 0.00 0.00 0.00 82 1012.8
20260509073523 54 0 0.0 0.0 0.00 0.00 0.00 82 1012.9
20260509073044 54 0 0.0 0.0 0.00 0.00 0.00 81 1012.8
20260509072525 54 0 0.0 0.0 0.00 0.00 0.00 82 1012.9
20260509072024 54 0 0.0 0.0 0.00 0.00 0.00 81 1012.9
20260509071540 54 0 0.0 0.0 0.00 0.00 0.00 81 1013.0
20260509071023 54 0 0.0 0.0 0.00 0.00 0.00 81 1013.1
20260509070523 54 0 0.0 0.0 0.00 0.00 0.00 81 1013.0
20260509070041 55 0 0.0 1.0 0.00 0.00 0.00 81 1013.3
20260509065525 55 0 0.0 1.0 0.00 0.00 0.00 81 1013.3
20260509065023 54 0 0.0 1.0 0.00 0.00 0.00 82 1013.5
20260509064537 54 0 0.0 0.0 0.00 0.00 0.00 81 1013.7
20260509064024 54 0 0.0 0.0 0.00 0.00 0.00 80 1013.9
20260509063523 54 0 0.0 0.0 0.00 0.00 0.00 78 1014.0
20260509063039 54 0 0.0 0.0 0.00 0.00 0.00 77 1014.0
20260509062523 54 0 0.0 0.0 0.00 0.00 0.00 76 1014.1
20260509062024 54 0 0.0 0.0 0.00 0.00 0.00 75 1014.2
20260509061555 54 0 0.0 0.0 0.00 0.00 0.00 75 1014.2
20260509061023 54 0 0.0 0.0 0.00 0.00 0.00 73 1014.3
20260509060523 54 0 0.0 0.0 0.00 0.00 0.00 72 1014.4
20260509060040 54 0 0.0 0.0 0.00 0.00 0.00 70 1014.4
20260509055530 55 0 0.0 0.0 0.00 0.00 0.00 69 1014.4
20260509055022 55 0 0.0 0.0 0.00 0.00 0.00 69 1014.4
20260509054549 55 0 0.0 0.0 0.00 0.00 0.00 69 1014.4
20260509054022 55 0 0.0 0.0 0.00 0.00 0.00 68 1014.5
20260509053523 56 0 0.0 0.0 0.00 0.00 0.00 67 1014.4
20260509053053 56 0 0.0 0.0 0.00 0.00 0.00 67 1014.4
20260509052527 56 0 0.0 0.0 0.00 0.00 0.00 67 1014.5
20260509052023 56 0 0.0 0.0 0.00 0.00 0.00 67 1014.6
20260509051538 56 0 0.0 0.0 0.00 0.00 0.00 67 1014.6
20260509051027 56 0 0.0 0.0 0.00 0.00 0.00 66 1014.6
20260509050524 57 0 0.0 0.0 0.00 0.00 0.00 65 1014.6
20260509050037 57 0 0.0 0.0 0.00 0.00 0.00 65 1014.7
20260509045526 57 0 0.0 0.0 0.00 0.00 0.00 65 1014.8
20260509045024 57 0 0.0 0.0 0.00 0.00 0.00 65 1014.8
20260509044545 57 0 0.0 0.0 0.00 0.00 0.00 64 1014.9
20260509044023 58 0 0.0 0.0 0.00 0.00 0.00 64 1014.9
20260509043523 58 0 0.0 0.0 0.00 0.00 0.00 63 1015.0
20260509043037 58 0 0.0 0.0 0.00 0.00 0.00 63 1015.1
20260509042523 58 0 0.0 0.0 0.00 0.00 0.00 63 1015.2
20260509042023 58 0 0.0 0.0 0.00 0.00 0.00 63 1015.2
20260509041539 59 0 0.0 0.0 0.00 0.00 0.00 62 1015.3
20260509041023 59 0 0.0 1.0 0.00 0.00 0.00 61 1015.4
20260509040523 59 0 0.0 1.0 0.00 0.00 0.00 61 1015.4
20260509040038 59 0 0.0 1.0 0.00 0.00 0.00 61 1015.5
20260509035524 59 0 0.0 0.0 0.00 0.00 0.00 60 1015.4
20260509035023 59 0 0.0 0.0 0.00 0.00 0.00 60 1015.5
20260509034539 59 0 0.0 0.0 0.00 0.00 0.00 60 1015.6
20260509034026 59 0 0.0 0.0 0.00 0.00 0.00 60 1015.6
20260509033524 59 0 0.0 0.0 0.00 0.00 0.00 61 1015.6
20260509033039 59 0 0.0 1.0 0.00 0.00 0.00 61 1015.8
20260509032525 59 0 0.0 1.0 0.00 0.00 0.00 61 1015.9
20260509032023 59 0 0.0 0.0 0.00 0.00 0.00 62 1015.9
20260509031540 59 0 0.0 0.0 0.00 0.00 0.00 62 1015.7
20260509031024 59 0 0.0 0.0 0.00 0.00 0.00 63 1015.6
20260509030526 59 0 0.0 0.0 0.00 0.00 0.00 62 1015.8
20260509030038 59 0 0.0 0.0 0.00 0.00 0.00 62 1015.7
20260509025523 59 0 0.0 0.0 0.00 0.00 0.00 62 1015.6
20260509025024 59 0 0.0 0.0 0.00 0.00 0.00 62 1015.7
20260509024537 59 0 0.0 0.0 0.00 0.00 0.00 62 1015.6
20260509024023 59 0 0.0 0.0 0.00 0.00 0.00 62 1015.5
20260509023523 59 0 0.0 0.0 0.00 0.00 0.00 62 1015.6
20260509023040 59 0 0.0 0.0 0.00 0.00 0.00 62 1015.6
20260509022525 59 0 0.0 0.0 0.00 0.00 0.00 61 1015.5
20260509022024 59 0 0.0 0.0 0.00 0.00 0.00 61 1015.6
20260509021538 60 0 0.0 0.0 0.00 0.00 0.00 61 1015.6
20260509021025 60 0 0.0 0.0 0.00 0.00 0.00 61 1015.7
20260509020526 60 0 0.0 0.0 0.00 0.00 0.00 60 1015.6
20260509020039 60 0 0.0 0.0 0.00 0.00 0.00 60 1015.4
20260509015526 61 0 0.0 0.0 0.00 0.00 0.00 59 1015.4
20260509015024 61 0 0.0 0.0 0.00 0.00 0.00 59 1015.5
20260509014540 61 0 0.0 0.0 0.00 0.00 0.00 57 1015.5
20260509014030 61 0 0.0 0.0 0.00 0.00 0.00 58 1015.3
20260509013523 61 0 0.0 0.0 0.00 0.00 0.00 57 1015.3
20260509013038 61 0 0.0 0.0 0.00 0.00 0.00 57 1015.3
20260509012523 61 0 0.0 0.0 0.00 0.00 0.00 56 1015.1
20260509012022 61 0 0.0 0.0 0.00 0.00 0.00 57 1015.2
20260509011543 62 0 0.0 0.0 0.00 0.00 0.00 56 1015.1
20260509011023 62 0 0.0 0.0 0.00 0.00 0.00 56 1015.1
20260509010523 62 0 0.0 0.0 0.00 0.00 0.00 56 1015.2
20260509010041 62 0 0.0 1.0 0.00 0.00 0.00 55 1015.1
20260509005523 62 0 0.0 1.0 0.00 0.00 0.00 55 1015.0
20260509005023 62 127 0.0 1.0 0.00 0.00 0.00 55 1015.0
20260509004541 62 0 0.0 1.0 0.00 0.00 0.00 55 1015.0
20260509004023 62 0 0.0 2.0 0.00 0.00 0.00 55 1015.1
20260509003526 63 0 0.0 2.0 0.00 0.00 0.00 54 1014.8
20260509003042 63 0 0.0 2.0 0.00 0.00 0.00 54 1015.0
20260509002522 63 107 0.0 3.0 0.00 0.00 0.00 54 1015.0
20260509002022 63 0 0.0 3.0 0.00 0.00 0.00 53 1015.1
20260509001538 63 98 1.0 3.0 0.00 0.00 0.00 53 1015.1
20260509001023 64 0 0.0 2.0 0.00 0.00 0.00 53 1015.2
20260509000523 64 98 1.0 5.0 0.00 0.00 0.00 52 1015.0
20260509000037 64 131 1.0 5.0 0.00 0.00 0.00 53 1015.0
20260508235526 64 96 2.0 5.0 0.00 0.00 0.00 52 1015.0
20260508235024 64 110 1.0 3.0 0.00 0.00 0.00 53 1014.8
20260508234546 64 107 0.0 2.0 0.00 0.00 0.00 53 1015.0
20260508234024 65 0 0.0 2.0 0.00 0.00 0.00 53 1015.0
20260508233523 65 109 0.0 2.0 0.00 0.00 0.00 52 1015.0
20260508233041 65 108 1.0 2.0 0.00 0.00 0.00 52 1014.8
20260508232522 65 105 0.0 2.0 0.00 0.00 0.00 52 1014.7
20260508232023 65 108 1.0 2.0 0.00 0.00 0.00 51 1014.9
20260508231555 65 0 0.0 2.0 0.00 0.00 0.00 51 1015.1
20260508231025 66 0 0.0 2.0 0.00 0.00 0.00 51 1015.0
20260508230525 66 80 1.0 3.0 0.00 0.00 0.00 50 1015.0
20260508230048 66 0 0.0 3.0 0.00 0.00 0.00 51 1014.9
20260508225525 66 103 1.0 2.0 0.00 0.00 0.00 50 1014.9
20260508225024 66 0 0.0 2.0 0.00 0.00 0.00 50 1014.9
20260508224538 66 86 0.0 6.0 0.00 0.00 0.00 49 1014.9
20260508224023 66 123 2.0 6.0 0.00 0.00 0.00 49 1014.9
20260508223523 67 109 0.0 5.0 0.00 0.00 0.00 48 1014.8
20260508223042 67 115 1.0 5.0 0.00 0.00 0.00 48 1014.9
20260508222524 67 115 2.0 5.0 0.00 0.00 0.00 48 1014.9
20260508222023 67 146 2.0 4.0 0.00 0.00 0.00 46 1014.8
20260508221541 67 78 2.0 3.0 0.00 0.00 0.00 46 1014.8
20260508221023 68 0 0.0 3.0 0.00 0.00 0.00 46 1014.8
20260508220522 67 93 1.0 4.0 0.00 0.00 0.00 46 1014.6
20260508220043 67 87 1.0 4.0 0.00 0.00 0.00 44 1014.7
20260508215526 67 105 1.0 6.0 0.00 0.00 0.00 44 1014.7
20260508215023 68 107 1.0 6.0 0.00 0.00 0.00 44 1014.8
20260508214550 68 96 3.0 5.0 0.00 0.00 0.00 43 1014.6
20260508214023 68 111 1.0 3.0 0.00 0.00 0.00 46 1014.8
20260508213523 68 0 1.0 4.0 0.00 0.00 0.00 43 1014.7
20260508213046 68 91 1.0 4.0 0.00 0.00 0.00 43 1014.6
20260508212524 68 92 0.0 8.0 0.00 0.00 0.00 42 1014.5
20260508212023 69 94 3.0 8.0 0.00 0.00 0.00 42 1014.7
20260508211541 69 116 0.0 6.0 0.00 0.00 0.00 42 1014.7
20260508211023 69 90 2.0 7.0 0.00 0.00 0.00 41 1014.6
20260508210523 70 0 1.0 7.0 0.00 0.00 0.00 41 1014.9
20260508210045 70 138 1.0 3.0 0.00 0.00 0.00 41 1015.0
20260508205523 69 252 0.0 5.0 0.00 0.00 0.00 41 1014.9
20260508205025 69 245 0.0 10.0 0.00 0.00 0.00 41 1014.6
20260508204540 69 110 3.0 10.0 0.00 0.00 0.00 40 1014.7
20260508204022 69 110 3.0 7.0 0.00 0.00 0.00 40 1014.6
20260508203522 69 124 3.0 5.0 0.00 0.00 0.00 39 1014.9
20260508203038 70 96 1.0 5.0 0.00 0.00 0.00 39 1014.7
20260508202523 71 96 1.0 5.0 0.00 0.00 0.00 39 1015.0
20260508202023 71 267 0.0 3.0 0.00 0.00 0.00 37 1015.1
20260508201538 70 149 0.0 7.0 0.00 0.00 0.00 40 1015.1
20260508201022 70 174 4.0 7.0 0.00 0.00 0.00 39 1015.2
20260508200522 71 98 1.0 6.0 0.00 0.00 0.00 37 1015.2
20260508200038 72 126 1.0 5.0 0.00 0.00 0.00 35 1015.3
20260508195523 72 203 1.0 7.0 0.00 0.00 0.00 37 1015.2
20260508195024 71 110 0.0 7.0 0.00 0.00 0.00 39 1015.4
20260508194556 71 96 2.0 7.0 0.00 0.00 0.00 35 1015.3
20260508194022 72 0 2.0 7.0 0.00 0.00 0.00 35 1015.5
20260508193523 74 142 1.0 4.0 0.00 0.00 0.00 32 1015.6
20260508193048 74 144 0.0 4.0 0.00 0.00 0.00 34 1015.8
20260508192523 73 138 1.0 4.0 0.00 0.00 0.00 34 1015.8
20260508192023 73 250 1.0 5.0 0.00 0.00 0.00 34 1015.9
20260508191540 74 257 0.0 5.0 0.00 0.00 0.00 31 1015.9
20260508191022 74 155 0.0 4.0 0.00 0.00 0.00 34 1016.0
20260508190525 73 292 1.0 4.0 0.00 0.00 0.00 32 1016.0
20260508190037 72 210 0.0 5.0 0.00 0.00 0.00 36 1016.1
20260508185524 71 288 1.0 7.0 0.00 0.00 0.00 35 1016.1
20260508185022 70 107 1.0 8.0 0.00 0.00 0.00 39 1016.1
20260508184538 70 106 2.0 8.0 0.00 0.00 0.00 35 1016.2
20260508184023 70 138 2.0 7.0 0.00 0.00 0.00 39 1016.3
20260508183523 68 160 3.0 8.0 0.00 0.00 0.00 39 1016.4
20260508183038 68 86 4.0 8.0 0.00 0.00 0.00 40 1016.5
20260508182523 70 91 4.0 8.0 0.00 0.00 0.00 35 1016.7
20260508182024 71 96 2.0 6.0 0.00 0.00 0.00 36 1016.5
20260508181543 72 88 2.0 6.0 0.00 0.00 0.00 35 1016.7
20260508181023 71 102 2.0 8.0 0.00 0.00 0.00 33 1016.7